297P/Beshore (2014)

Japanese version
Home page
Updated on March 25, 2017

---------------------------------------------------------------------

* Profile

Designation 297P/2014 D1
Recovery Date February 27, 2014
Magnitude 19.9 mag
Recoverer D. T. Durig (University of the South, Sewanee, TN, USA)

* Pictures

* Orbital Elements

Epoch 2014 Aug. 11.0 TT = JDT 2456880.5
T 2014 Aug. 29.96300 TT                                 MPCW
q   2.3462370            (2000.0)            P               Q
n   0.15421418     Peri.  132.19668     -0.63216233     +0.75420360
a   3.4439210      Node    97.70875     -0.75320053     -0.54435593
e   0.3187309      Incl.   10.32530     -0.18182340     -0.36722412
P   6.39
From 498 observations 2001 Mar. 20-2014 June 18, mean residual 0".5.

* Finding Charts

* Magnitudes Graph

        m1 = 12.5 + 5 log d + 15 log r

        * Gray curve is:  m1 = -5 + 5 log d + 50 log r

---------------------------------------------------------------------

The orbital elements are published on M.P.E.C. 2017-A77.
The charts are made with StellaNavigator Ver.8 (AstroArts).
The magnitudes graphs are made with Comet for Windows.

---------------------------------------------------------------------

Copyright(C) Seiichi Yoshida (comet@aerith.net). All rights reserved.